Erie, PA

10:54 AM EST on December 13, 2017 (GMT -0500)
Erie International

Weather History for KERI - October, 2011

Change the Weather History Date:

Monday, October 17, 2011

  Actual Average Record
Temperature  
Mean Temperature 54 °F 53 °F  
Max Temperature 60 °F 60 °F 82 °F (1947)
Min Temperature 47 °F 45 °F 26 °F (1978)
Degree Days  
Heating Degree Days 11 13  
Month to date heating degree days 121 174  
Since 1 July heating degree days 194 298  
Cooling Degree Days 0 0  
Month to date cooling degree days 5 7  
Year to date cooling degree days 830 636  
Growing Degree Days 3 (Base 50)    
Moisture  
Dew Point 35 °F    
Average Humidity 55    
Maximum Humidity 77    
Minimum Humidity 32    
Precipitation  
Precipitation 0.00 in 0.12 in 1.67 in (1948)
Month to date precipitation 4.02 2.36  
Year to date precipitation 45.23 32.80  
Snow  
Snow 0.00 in 0.00 in - ()
Month to date snowfall 0.0 0.0  
Since 1 July snowfall 0.0 0.0  
Since 1 September snowfall 0.0 0.0  
Snow Depth 0.00 in    
Sea Level Pressure  
Sea Level Pressure 29.73 in    
Wind  
Wind Speed 13 mph (WSW)    
Max Wind Speed 24 mph    
Max Gust Speed 33 mph    
Visibility 10 miles    
Events      
T = Trace of Precipitation, MM = Missing Value Source: NWS Daily Summary

Daily Weather History Graph

Daily Weather History Graph

Search for Another Location

Airport or City:

Trip Planner

Search our weather history database for the weather conditions in past years. The results will help you decide how hot, cold, wet, or windy it might be!

Date:

Astronomy

Oct. 17, 2011 Rise Set
Actual Time 7:35 AM EDT 6:36 PM EDT
Civil Twilight 7:06 AM EDT 7:04 PM EDT
Nautical Twilight 6:34 AM EDT 7:36 PM EDT
Astronomical Twilight 6:02 AM EDT 8:09 PM EDT
Moon 10:11 PM EDT (10/17) 12:44 PM EDT (10/17)
Length of Visible Light 11h 57m
Length of Day
11h 01m
Waning Gibbous, 74% of the Moon is Illuminated
Oct 17
Waning Gibbous
Oct 19
Last Quarter
Oct 26
New
Nov 2
First Quarter
Nov 10
Full

Hourly Weather History & Observations

Time (EDT) Temp. Dew Point Humidity Pressure Visibility Wind Dir Wind Speed Gust Speed Precip Events Conditions
12:51 AM 55.0 °F 36.0 °F 49% 29.73 in 10.0 mi West 15.0 mph 24.2 mph N/A   Mostly Cloudy
1:51 AM 55.0 °F 36.0 °F 49% 29.72 in 10.0 mi West 12.7 mph 23.0 mph N/A   Overcast
2:51 AM 55.9 °F 34.0 °F 44% 29.71 in 10.0 mi WNW 17.3 mph 32.2 mph N/A   Overcast
3:51 AM 55.9 °F 33.1 °F 42% 29.71 in 10.0 mi West 17.3 mph 26.5 mph N/A   Overcast
4:12 AM 51.8 °F 39.2 °F 62% 29.71 in 10.0 mi SW 12.7 mph - N/A   Overcast
4:51 AM 48.9 °F 39.9 °F 71% 29.73 in 10.0 mi SSW 11.5 mph - N/A   Mostly Cloudy
5:51 AM 48.0 °F 41.0 °F 77% 29.74 in 10.0 mi SSW 11.5 mph - N/A   Mostly Cloudy
6:51 AM 46.9 °F 39.9 °F 77% 29.74 in 10.0 mi SW 11.5 mph - N/A   Clear
7:51 AM 46.9 °F 39.0 °F 74% 29.74 in 10.0 mi SSW 11.5 mph 19.6 mph N/A   Partly Cloudy
8:51 AM 48.0 °F 39.0 °F 71% 29.75 in 10.0 mi SW 13.8 mph 20.7 mph N/A   Scattered Clouds
9:51 AM 51.1 °F 37.9 °F 61% 29.75 in 10.0 mi SW 16.1 mph 28.8 mph N/A   Partly Cloudy
10:51 AM 53.1 °F 37.9 °F 57% 29.75 in 10.0 mi SW 16.1 mph 32.2 mph N/A   Scattered Clouds
11:51 AM 54.0 °F 37.0 °F 53% 29.75 in 10.0 mi SW 18.4 mph 27.6 mph N/A   Overcast
12:51 PM 55.9 °F 36.0 °F 47% 29.73 in 10.0 mi WSW 17.3 mph 26.5 mph N/A   Clear
1:51 PM 57.2 °F 30.2 °F 36% 29.71 in 10.0 mi WSW 18.4 mph 27.6 mph N/A   Clear
2:51 PM 60.1 °F 30.9 °F 33% 29.68 in 10.0 mi WSW 15.0 mph 25.3 mph N/A   Clear
3:51 PM 59.0 °F 35.1 °F 41% 29.68 in 10.0 mi West 15.0 mph 28.8 mph N/A   Clear
4:51 PM 59.0 °F 35.1 °F 41% 29.69 in 10.0 mi WSW 19.6 mph 28.8 mph N/A   Clear
5:51 PM 57.9 °F 37.0 °F 46% 29.71 in 10.0 mi WSW 16.1 mph 23.0 mph N/A   Clear
6:51 PM 55.9 °F 34.0 °F 44% 29.72 in 10.0 mi SW 8.1 mph - N/A   Clear
7:51 PM 52.0 °F 28.0 °F 40% 29.74 in 10.0 mi SSW 8.1 mph - N/A   Clear
8:51 PM 52.0 °F 28.0 °F 40% 29.75 in 10.0 mi SW 8.1 mph - N/A   Clear
9:51 PM 53.6 °F 28.4 °F 38% 29.76 in 10.0 mi SW 8.1 mph - N/A   Clear
10:51 PM 51.1 °F 30.0 °F 44% 29.78 in 10.0 mi SW 6.9 mph - N/A   Clear
11:51 PM 55.9 °F 39.0 °F 53% 29.79 in 10.0 mi West 12.7 mph 20.7 mph N/A   Clear